Jackson, WY

6:05 PM MDT on October 22, 2017 (GMT -0600)
Jackson Hole

Weather History for KJAC - December, 2013

Change the Weather History Date:

Sunday, December 22, 2013

  Actual Average Record
Temperature  
Mean Temperature 18 °F -  
Max Temperature 28 °F 23 °F 46 °F (2007)
Min Temperature 8 °F 2 °F -37 °F (1990)
Degree Days  
Heating Degree Days 47    
Moisture  
Dew Point 17 °F    
Average Humidity 82    
Maximum Humidity 100    
Minimum Humidity 69    
Precipitation  
Precipitation 0.00 in - - ()
Sea Level Pressure  
Sea Level Pressure 30.02 in    
Wind  
Wind Speed 5 mph (SSW)    
Max Wind Speed 15 mph    
Max Gust Speed 22 mph    
Visibility 10 miles    
Events Snow    
Averages and records for this station are not official NWS values.
T = Trace of Precipitation, MM = Missing Value Source: NWS Daily Summary

Daily Weather History Graph

Daily Weather History Graph

Search for Another Location

Airport or City:

Trip Planner

Search our weather history database for the weather conditions in past years. The results will help you decide how hot, cold, wet, or windy it might be!

Date:

Astronomy

Dec. 22, 2013 Rise Set
Actual Time 7:53 AM MST 4:49 PM MST
Civil Twilight 7:20 AM MST 5:22 PM MST
Nautical Twilight 6:44 AM MST 5:58 PM MST
Astronomical Twilight 6:09 AM MST 6:33 PM MST
Moon 10:14 PM MST (12/22) 10:43 AM MST (12/22)
Length of Visible Light 10h 01m
Length of Day
8h 56m
Waning Gibbous, 76% of the Moon is Illuminated
Dec 22
Waning Gibbous
Dec 25
Last Quarter
Jan 1
New
Jan 7
First Quarter
Jan 15
Full

Hourly Weather History & Observations

Time (MST) Temp. Windchill Dew Point Humidity Pressure Visibility Wind Dir Wind Speed Gust Speed Precip Events Conditions
12:15 AM 8.6 °F 2.0 °F 8.6 °F 100% 29.94 in 10.0 mi NE 3.5 mph - N/A   Overcast
12:35 AM 10.4 °F - 10.4 °F 100% 29.95 in 10.0 mi Calm Calm - N/A   Overcast
12:55 AM 12.2 °F 6.1 °F 10.4 °F 92% 29.95 in 10.0 mi NNE 3.5 mph - N/A   Overcast
1:35 AM 12.2 °F - 10.4 °F 92% 29.94 in 10.0 mi Calm Calm - N/A   Overcast
1:55 AM 14.0 °F - 12.2 °F 93% 29.95 in 10.0 mi Calm Calm - N/A   Overcast
2:15 AM 12.2 °F - 10.4 °F 92% 29.95 in 10.0 mi Calm Calm - N/A   Overcast
2:35 AM 12.2 °F 6.1 °F 12.2 °F 100% 29.96 in 10.0 mi East 3.5 mph - N/A   Overcast
2:55 AM 14.0 °F - 12.2 °F 93% 29.96 in 10.0 mi Calm Calm - N/A   Overcast
3:15 AM 15.8 °F 5.1 °F 12.2 °F 86% 29.96 in 10.0 mi NNW 8.1 mph - N/A   Overcast
3:35 AM 15.8 °F 7.2 °F 12.2 °F 86% 29.96 in 10.0 mi North 5.8 mph - N/A   Overcast
3:55 AM 17.6 °F - 14.0 °F 86% 29.96 in 10.0 mi Calm Calm - N/A   Overcast
4:15 AM 15.8 °F 10.2 °F 14.0 °F 93% 29.96 in 10.0 mi North 3.5 mph - N/A   Overcast
4:35 AM 17.6 °F - 15.8 °F 93% 29.95 in 10.0 mi Calm Calm - N/A   Overcast
4:55 AM 19.4 °F - 15.8 °F 86% 29.96 in 10.0 mi Calm Calm - N/A   Overcast
5:15 AM 19.4 °F 11.5 °F 15.8 °F 86% 29.97 in 10.0 mi South 5.8 mph - N/A   Overcast
5:35 AM 19.4 °F 12.8 °F 15.8 °F 86% 29.97 in 10.0 mi NNW 4.6 mph - N/A   Overcast
5:55 AM 15.8 °F 8.6 °F 14.0 °F 93% 29.97 in 10.0 mi North 4.6 mph - N/A   Overcast
6:15 AM 15.8 °F 8.6 °F 14.0 °F 93% 29.98 in 10.0 mi North 4.6 mph - N/A   Overcast
6:35 AM 17.6 °F 12.3 °F 14.0 °F 86% 29.98 in 10.0 mi South 3.5 mph - N/A   Overcast
6:51 AM 21.2 °F 10.1 °F 17.6 °F 86% 29.98 in 10.0 mi South 10.4 mph - N/A   Mostly Cloudy
7:51 AM 21.2 °F 8.9 °F 17.6 °F 86% 29.99 in 10.0 mi South 12.7 mph - N/A   Mostly Cloudy
8:51 AM 23.0 °F 12.4 °F 17.6 °F 80% 30.00 in 10.0 mi SSW 10.4 mph - N/A   Mostly Cloudy
9:51 AM 24.8 °F 14.6 °F 17.6 °F 74% 30.01 in 10.0 mi SSW 10.4 mph - N/A   Mostly Cloudy
10:51 AM 24.8 °F 14.0 °F 17.6 °F 74% 30.04 in 10.0 mi South 11.5 mph - N/A   Mostly Cloudy
11:51 AM 26.6 °F 15.2 °F 19.4 °F 74% 30.03 in 10.0 mi SSE 13.8 mph 19.6 mph N/A   Mostly Cloudy
12:51 PM 26.6 °F 14.7 °F 19.4 °F 74% 30.02 in 10.0 mi SSE 15.0 mph - N/A   Mostly Cloudy
1:53 PM 26.6 °F 16.8 °F 19.4 °F 74% 30.03 in 10.0 mi SSE 10.4 mph 17.3 mph N/A   Mostly Cloudy
2:28 PM 28.4 °F - 19.4 °F 69% 30.03 in 10.0 mi Calm Calm - N/A Snow Light Snow
2:51 PM 28.4 °F 19.1 °F 19.4 °F 69% 30.04 in 10.0 mi SW 10.4 mph 21.9 mph N/A Snow Light Snow
3:58 PM 28.4 °F 20.4 °F 21.2 °F 74% 30.06 in 10.0 mi SW 8.1 mph - N/A   Mostly Cloudy
4:52 PM 28.4 °F 19.1 °F 19.4 °F 69% 30.07 in 10.0 mi SSW 10.4 mph - N/A   Mostly Cloudy
5:53 PM 28.4 °F 19.7 °F 19.4 °F 69% 30.08 in 10.0 mi SW 9.2 mph - N/A   Mostly Cloudy
7:53 PM 28.4 °F 20.4 °F 21.2 °F 74% 30.12 in 10.0 mi SSW 8.1 mph - N/A   Mostly Cloudy
8:55 PM 28.4 °F 23.3 °F 21.2 °F 74% 30.14 in 10.0 mi SSW 4.6 mph - N/A   Overcast
9:15 PM 28.4 °F 22.2 °F 21.2 °F 74% 30.15 in 10.0 mi SW 5.8 mph - N/A   Overcast
9:35 PM 28.4 °F 19.7 °F 21.2 °F 74% 30.15 in 10.0 mi South 9.2 mph - N/A   Overcast
9:55 PM 28.4 °F 21.2 °F 21.2 °F 74% 30.15 in 10.0 mi South 6.9 mph - N/A   Overcast
10:35 PM 28.4 °F 19.1 °F 21.2 °F 74% 30.16 in 10.0 mi SSW 10.4 mph - N/A   Overcast
10:55 PM 28.4 °F 18.5 °F 21.2 °F 74% 30.17 in 10.0 mi SSW 11.5 mph - N/A   Overcast
11:15 PM 28.4 °F 19.7 °F 21.2 °F 74% 30.18 in 10.0 mi SSW 9.2 mph - N/A   Overcast
11:35 PM 28.4 °F 22.2 °F 21.2 °F 74% 30.19 in 10.0 mi SSW 5.8 mph - N/A   Overcast